Location: Erlenbrunn
(49.1717°N, 7.6142°E)
Time: 11:17:44
(UTC+00:00)

Meteor 1-20 Rocket - Pass Details

Date: 25 November 2020
Orbit: 819 x 892 km, 81.2° (Epoch: 25 January)

Event Time Altitude Azimuth Distance (km) Brightness Sun altitude
Rises 16:56:44 0° 351° (N) 3,511 7.3 -12.5°
Reaches altitude 10° 16:59:16 10° 356° (N) 2,571 6.6 -12.9°
Maximum altitude 17:05:00 52° 72° (ENE) 1,101 4.4 -13.8°
Drops below altitude 10° 17:10:40 10° 149° (SSE) 2,551 6.5 -14.7°
Sets 17:13:10 0° 154° (SSE) 3,480 7.3 -15.1°
